Waco, TX

9:53 PM CDT on October 18, 2017 (GMT -0500)
Waco Regional

Weather History for KACT - October, 2012

Change the Weather History Date:

Sunday, October 14, 2012

  Actual Average Record
Temperature  
Mean Temperature 70 °F 69 °F  
Max Temperature 84 °F 81 °F 98 °F (2015)
Min Temperature 56 °F 57 °F 43 °F (1969)
Degree Days  
Heating Degree Days 0 1  
Month to date heating degree days 32 14  
Since 1 July heating degree days 32 20  
Cooling Degree Days 5 5  
Month to date cooling degree days 96 94  
Year to date cooling degree days 3094 2688  
Growing Degree Days 24 (Base 50)    
Moisture  
Dew Point 58 °F    
Average Humidity 61    
Maximum Humidity 90    
Minimum Humidity 31    
Precipitation  
Precipitation 0.00 in 0.13 in 1.33 in (1957)
Month to date precipitation 0.06 1.73  
Year to date precipitation 31.53 26.95  
Snow  
Snow 0.00 in 0.00 in 0.00 in ()
Month to date snowfall 0.0 0.0  
Since 1 July snowfall 0.0 0.0  
Since 1 September snowfall 0.0 0.0  
Snow Depth 0.00 in    
Sea Level Pressure  
Sea Level Pressure 30.00 in    
Wind  
Wind Speed 9 mph (NW)    
Max Wind Speed 25 mph    
Max Gust Speed 33 mph    
Visibility 10 miles    
Events      
T = Trace of Precipitation, MM = Missing Value Source: NWS Daily Summary

Daily Weather History Graph

Daily Weather History Graph

Search for Another Location

Airport or City:

Trip Planner

Search our weather history database for the weather conditions in past years. The results will help you decide how hot, cold, wet, or windy it might be!

Date:

Astronomy

Oct. 14, 2012 Rise Set
Actual Time 7:31 AM CDT 6:57 PM CDT
Civil Twilight 7:07 AM CDT 7:21 PM CDT
Nautical Twilight 6:38 AM CDT 7:50 PM CDT
Astronomical Twilight 6:10 AM CDT 8:18 PM CDT
Moon 6:33 AM CDT (10/14) 6:19 PM CDT (10/14)
Length of Visible Light 12h 14m
Length of Day
11h 25m
Waning Crescent, 1% of the Moon is Illuminated
Oct 14
Waning Crescent
Oct 15
New
Oct 21
First Quarter
Oct 29
Full
Nov 6
Last Quarter

Hourly Weather History & Observations

Time (CDT) Temp. Dew Point Humidity Pressure Visibility Wind Dir Wind Speed Gust Speed Precip Events Conditions
12:51 AM 77.0 °F 71.6 °F 83% 29.91 in 10.0 mi South 20.7 mph 26.5 mph N/A   Overcast
1:51 AM 77.0 °F 70.0 °F 79% 29.88 in 10.0 mi South 20.7 mph 33.4 mph N/A   Overcast
2:51 AM 77.0 °F 70.0 °F 79% 29.92 in 10.0 mi SSW 16.1 mph 21.9 mph N/A   Overcast
3:25 AM 75.2 °F 69.8 °F 83% 29.92 in 10.0 mi South 10.4 mph - N/A   Scattered Clouds
3:51 AM 75.0 °F 69.1 °F 82% 29.93 in 10.0 mi WNW 8.1 mph - N/A   Clear
4:51 AM 72.0 °F 64.0 °F 76% 29.92 in 10.0 mi SW 6.9 mph - N/A   Mostly Cloudy
5:51 AM 71.6 °F 66.2 °F 83% 29.94 in 10.0 mi SW 6.9 mph - N/A   Clear
6:51 AM 70.0 °F 66.0 °F 87% 29.97 in 10.0 mi SSW 8.1 mph - N/A   Clear
7:51 AM 69.8 °F 62.6 °F 78% 30.01 in 10.0 mi WNW 4.6 mph - N/A   Clear
8:51 AM 70.0 °F 63.0 °F 78% 30.02 in 10.0 mi NNW 6.9 mph - N/A   Clear
9:51 AM 75.0 °F 54.0 °F 48% 30.05 in 10.0 mi NNW 8.1 mph - N/A   Clear
10:51 AM 79.0 °F 50.0 °F 36% 30.06 in 10.0 mi North 12.7 mph - N/A   Clear
11:51 AM 80.1 °F 52.0 °F 38% 30.06 in 10.0 mi North 10.4 mph - N/A   Clear
12:51 PM 81.0 °F 52.0 °F 36% 30.05 in 10.0 mi North 9.2 mph - N/A   Clear
1:51 PM 82.9 °F 50.0 °F 32% 30.03 in 10.0 mi NNW 8.1 mph - N/A   Clear
2:51 PM 84.0 °F 50.0 °F 31% 30.02 in 10.0 mi NNW 12.7 mph - N/A   Clear
3:51 PM 84.0 °F 51.1 °F 32% 30.01 in 10.0 mi NNW 13.8 mph - N/A   Clear
4:51 PM 82.9 °F 52.0 °F 34% 30.02 in 10.0 mi North 11.5 mph - N/A   Clear
5:51 PM 82.0 °F 52.0 °F 35% 30.01 in 10.0 mi North 8.1 mph - N/A   Clear
6:51 PM 73.9 °F 54.0 °F 50% 30.02 in 10.0 mi North 4.6 mph - N/A   Clear
7:51 PM 68.0 °F 53.1 °F 59% 30.02 in 10.0 mi North 3.5 mph - N/A   Clear
8:51 PM 66.9 °F 52.0 °F 59% 30.04 in 10.0 mi NNW 5.8 mph - N/A   Clear
9:51 PM 66.0 °F 52.0 °F 60% 30.06 in 10.0 mi North 5.8 mph - N/A   Clear
10:51 PM 64.0 °F 53.1 °F 67% 30.09 in 10.0 mi NNW 5.8 mph - N/A   Clear
11:51 PM 61.0 °F 53.1 °F 75% 30.09 in 10.0 mi NNW 6.9 mph - N/A   Clear